• In Hungary
  • List of Countries
  • For 7 days
  • Water Temperature
  • Satellite Maps
  • Weather Map
  • News
  • Weather Widgets
  • user-avatar
    Login

    Hourly Weather Vysoke Myto

    Today, 24 June, Sunday

    Time Temperature Precipitation Wind Pressure Humidity
    00:00 +10°C° 0 mm 3 mps 739 mmHg 95%
    01:00 +9°C° 0 mm 3 mps 739 mmHg 96%
    02:00 +9°C° 0 mm 3 mps 739 mmHg 95%
    03:00 +9°C° 0 mm 3 mps 739 mmHg 95%
    04:00 +10°C° 0 mm 3 mps 739 mmHg 95%
    05:00 +10°C° 0.1 mm 3 mps 739 mmHg 93%
    06:00 +11°C° 0.1 mm 4 mps 739 mmHg 91%
    07:00 +11°C° 0.1 mm 4 mps 739 mmHg 89%
    08:00 +12°C° 0.1 mm 4 mps 739 mmHg 87%
    09:00 +13°C° 0.1 mm 5 mps 739 mmHg 84%
    10:00 +13°C° 0.1 mm 5 mps 739 mmHg 82%
    11:00 +14°C° 0.2 mm 5 mps 738 mmHg 79%
    12:00 +14°C° 0.2 mm 5 mps 738 mmHg 77%
    13:00 +15°C° 0.2 mm 5 mps 738 mmHg 75%
    14:00 +15°C° 0.1 mm 5 mps 738 mmHg 74%
    15:00 +15°C° 0.1 mm 5 mps 738 mmHg 73%
    16:00 +15°C° 0.1 mm 5 mps 738 mmHg 72%
    17:00 +14°C° 0.1 mm 5 mps 738 mmHg 75%
    18:00 +13°C° 0.1 mm 4 mps 738 mmHg 78%
    19:00 +13°C° 0.1 mm 4 mps 738 mmHg 82%
    20:00 +12°C° 0.1 mm 3 mps 738 mmHg 86%
    21:00 +11°C° 0.1 mm 3 mps 738 mmHg 90%
    22:00 +10°C° 0.1 mm 2 mps 738 mmHg 94%
    23:00 +10°C° 0 mm 2 mps 738 mmHg 94%

    Tomorrow, 25 June, Monday

    Time Temperature Precipitation Wind Pressure Humidity
    00:00 +10°C° 0 mm 2 mps 739 mmHg 95%
    01:00 +10°C° 0 mm 2 mps 739 mmHg 96%
    02:00 +11°C° 0 mm 1 mps 739 mmHg 96%
    03:00 +11°C° 0 mm 1 mps 739 mmHg 96%
    04:00 +11°C° 0 mm 1 mps 739 mmHg 97%
    05:00 +12°C° 0 mm 1 mps 739 mmHg 94%
    06:00 +12°C° 0 mm 1 mps 739 mmHg 91%
    07:00 +13°C° 0 mm 2 mps 739 mmHg 89%
    08:00 +14°C° 0.1 mm 2 mps 739 mmHg 84%
    09:00 +15°C° 0.1 mm 2 mps 740 mmHg 79%
    10:00 +17°C° 0.1 mm 2 mps 740 mmHg 74%
    11:00 +18°C° 0.3 mm 2 mps 740 mmHg 71%
    12:00 +19°C° 0.3 mm 2 mps 739 mmHg 68%
    13:00 +20°C° 0.3 mm 2 mps 739 mmHg 64%
    14:00 +20°C° 0.2 mm 2 mps 739 mmHg 64%
    15:00 +20°C° 0.2 mm 2 mps 739 mmHg 63%
    16:00 +20°C° 0.2 mm 2 mps 739 mmHg 63%
    17:00 +19°C° 0.1 mm 2 mps 739 mmHg 68%
    18:00 +19°C° 0.1 mm 2 mps 739 mmHg 73%
    19:00 +19°C° 0.1 mm 1 mps 739 mmHg 79%
    20:00 +16°C° 0 mm 1 mps 740 mmHg 81%
    21:00 +15°C° 0 mm 1 mps 740 mmHg 83%
    22:00 +13°C° 0 mm 1 mps 740 mmHg 85%
    23:00 +13°C° 0 mm 1 mps 740 mmHg 86%

    Day after tomorrow, 26 June, Tuesday

    Time Temperature Precipitation Wind Pressure Humidity
    00:00 +12°C° 0 mm 1 mps 740 mmHg 87%
    01:00 +12°C° 0 mm 1 mps 740 mmHg 89%
    02:00 +12°C° 0 mm 1 mps 740 mmHg 90%
    03:00 +11°C° 0 mm 1 mps 740 mmHg 91%
    04:00 +11°C° 0 mm 1 mps 740 mmHg 92%
    05:00 +13°C° 0 mm 1 mps 740 mmHg 89%
    06:00 +15°C° 0 mm 1 mps 741 mmHg 85%
    07:00 +16°C° 0 mm 1 mps 741 mmHg 82%
    08:00 +18°C° 0.3 mm 2 mps 741 mmHg 78%
    09:00 +19°C° 0.3 mm 2 mps 741 mmHg 74%
    10:00 +20°C° 0.3 mm 3 mps 741 mmHg 70%
    11:00 +21°C° 0.2 mm 3 mps 741 mmHg 66%
    12:00 +21°C° 0.2 mm 3 mps 741 mmHg 63%
    13:00 +22°C° 0.2 mm 3 mps 741 mmHg 60%
    14:00 +22°C° 0.2 mm 3 mps 740 mmHg 61%
    15:00 +22°C° 0.2 mm 3 mps 740 mmHg 62%
    16:00 +22°C° 0.2 mm 3 mps 740 mmHg 63%
    17:00 +21°C° 0.3 mm 3 mps 740 mmHg 70%
    18:00 +20°C° 0.3 mm 2 mps 740 mmHg 77%
    19:00 +19°C° 0.3 mm 2 mps 740 mmHg 84%
    20:00 +17°C° 0 mm 2 mps 740 mmHg 86%
    21:00 +16°C° 0 mm 1 mps 740 mmHg 88%
    22:00 +14°C° 0 mm 1 mps 741 mmHg 90%
    23:00 +14°C° 0 mm 1 mps 740 mmHg 91%

    27 June, Wednesday

    Time Temperature Precipitation Wind Pressure Humidity
    00:00 +14°C° 0 mm 1 mps 740 mmHg 91%
    01:00 +13°C° 0 mm 1 mps 740 mmHg 92%
    02:00 +13°C° 0 mm 2 mps 740 mmHg 93%
    03:00 +13°C° 0 mm 2 mps 740 mmHg 93%
    04:00 +13°C° 0 mm 2 mps 740 mmHg 94%
    05:00 +14°C° 0 mm 2 mps 740 mmHg 91%
    06:00 +15°C° 0 mm 2 mps 740 mmHg 88%
    07:00 +16°C° 0 mm 3 mps 740 mmHg 85%
    08:00 +18°C° 0 mm 3 mps 740 mmHg 78%
    09:00 +19°C° 0 mm 4 mps 740 mmHg 70%
    10:00 +20°C° 0 mm 4 mps 740 mmHg 63%
    11:00 +21°C° 0 mm 4 mps 740 mmHg 60%
    12:00 +21°C° 0 mm 4 mps 740 mmHg 57%
    13:00 +22°C° 0 mm 5 mps 739 mmHg 54%
    14:00 +22°C° 0.1 mm 5 mps 739 mmHg 56%
    15:00 +21°C° 0.1 mm 5 mps 739 mmHg 58%
    16:00 +21°C° 0.1 mm 5 mps 739 mmHg 61%
    17:00 +20°C° 0.3 mm 4 mps 739 mmHg 67%
    18:00 +19°C° 0.3 mm 3 mps 738 mmHg 74%
    19:00 +17°C° 0.3 mm 3 mps 738 mmHg 81%
    20:00 +16°C° 0.1 mm 2 mps 738 mmHg 84%
    21:00 +15°C° 0.1 mm 2 mps 738 mmHg 87%
    22:00 +14°C° 0.1 mm 2 mps 738 mmHg 90%
    23:00 +13°C° 0 mm 2 mps 738 mmHg 92%

    28 June, Thursday

    Time Temperature Precipitation Wind Pressure Humidity
    00:00 +13°C° 0 mm 2 mps 737 mmHg 93%
    01:00 +12°C° 0 mm 2 mps 737 mmHg 95%
    02:00 +12°C° 0 mm 2 mps 737 mmHg 95%
    03:00 +12°C° 0 mm 2 mps 737 mmHg 96%
    04:00 +12°C° 0 mm 2 mps 737 mmHg 96%
    05:00 +12°C° 0 mm 3 mps 737 mmHg 94%
    06:00 +13°C° 0 mm 3 mps 737 mmHg 92%
    07:00 +14°C° 0 mm 3 mps 737 mmHg 90%
    08:00 +15°C° 0.1 mm 4 mps 737 mmHg 87%
    09:00 +15°C° 0.1 mm 4 mps 736 mmHg 84%
    10:00 +17°C° 0.1 mm 4 mps 736 mmHg 81%
    11:00 +18°C° 0.3 mm 4 mps 736 mmHg 78%
    12:00 +19°C° 0.3 mm 4 mps 736 mmHg 75%
    13:00 +20°C° 0.3 mm 4 mps 735 mmHg 71%
    14:00 +20°C° 0.6 mm 4 mps 735 mmHg 72%
    15:00 +20°C° 0.6 mm 4 mps 735 mmHg 74%
    16:00 +20°C° 0.6 mm 4 mps 734 mmHg 75%
    17:00 +20°C° 1 mm 3 mps 734 mmHg 79%
    18:00 +19°C° 1 mm 3 mps 734 mmHg 84%
    19:00 +18°C° 1 mm 2 mps 733 mmHg 88%
    20:00 +17°C° 0.2 mm 2 mps 733 mmHg 90%
    21:00 +16°C° 0.2 mm 2 mps 733 mmHg 93%
    22:00 +15°C° 0.2 mm 2 mps 733 mmHg 95%
    23:00 +14°C° 0.1 mm 2 mps 733 mmHg 96%

    29 June, Friday

    Time Temperature Precipitation Wind Pressure Humidity
    00:00 +14°C° 0.1 mm 2 mps 733 mmHg 96%
    01:00 +13°C° 0.1 mm 2 mps 733 mmHg 97%
    02:00 +14°C° 0 mm 2 mps 732 mmHg 97%
    03:00 +14°C° 0 mm 2 mps 732 mmHg 97%
    04:00 +14°C° 0 mm 2 mps 732 mmHg 97%
    05:00 +15°C° 0 mm 2 mps 732 mmHg 95%
    06:00 +15°C° 0 mm 2 mps 732 mmHg 92%
    07:00 +16°C° 0 mm 2 mps 732 mmHg 90%
    08:00 +17°C° 0.1 mm 2 mps 732 mmHg 86%
    09:00 +18°C° 0.1 mm 2 mps 732 mmHg 81%
    10:00 +20°C° 0.1 mm 3 mps 732 mmHg 76%
    11:00 +20°C° 0.3 mm 3 mps 732 mmHg 74%
    12:00 +21°C° 0.3 mm 3 mps 732 mmHg 73%
    13:00 +22°C° 0.3 mm 3 mps 732 mmHg 71%
    14:00 +23°C° 0.4 mm 2 mps 732 mmHg 71%
    15:00 +23°C° 0.4 mm 2 mps 732 mmHg 70%
    16:00 +23°C° 0.4 mm 2 mps 732 mmHg 70%
    17:00 +21°C° 0.3 mm 2 mps 732 mmHg 76%
    18:00 +20°C° 0.3 mm 2 mps 732 mmHg 81%
    19:00 +20°C° 0.3 mm 2 mps 733 mmHg 86%
    20:00 +18°C° 0 mm 2 mps 733 mmHg 89%
    21:00 +17°C° 0 mm 2 mps 733 mmHg 92%
    22:00 +16°C° 0 mm 2 mps 734 mmHg 95%
    23:00 +16°C° 0 mm 2 mps 734 mmHg 96%
    Show more